NWK1611 YPKG-YPPH

Flight info

Callsign NWK1611
Flight time 1h 0m
Altitude 32000
Route KG Q41 MALUP Q158 KABLI
Aircraft A320/M-SDE3FGHIRWYZ/LB1

Departure

Time 2026-04-26 10:28
Airport Kalgoorlie Boulder Airport (YPKG)

Arrival

Time 2026-04-26 11:29
Airport Perth International Airport (YPPH)
Time Latitude Longitude Altitude Speed Heading
2026-04-26 10:12 -30.78573 121.45743 1212 ft 0 kts 58°
2026-04-26 10:22 -30.78573 121.45744 1212 ft 1 kts 59°
2026-04-26 10:22 -30.78572 121.45760 1212 ft 3 kts 100°
2026-04-26 10:22 -30.78596 121.45767 1212 ft 5 kts 202°
2026-04-26 10:22 -30.78617 121.45769 1212 ft 1 kts 151°
2026-04-26 10:23 -30.78626 121.45775 1212 ft 3 kts 147°
2026-04-26 10:23 -30.78655 121.45793 1212 ft 6 kts 163°
2026-04-26 10:23 -30.78707 121.45782 1212 ft 9 kts 200°
2026-04-26 10:23 -30.78777 121.45751 1212 ft 12 kts 200°
2026-04-26 10:24 -30.78822 121.45732 1213 ft 0 kts 201°
2026-04-26 10:25 -30.78837 121.45725 1213 ft 4 kts 201°
2026-04-26 10:26 -30.78870 121.45711 1213 ft 6 kts 200°
2026-04-26 10:26 -30.78891 121.45665 1214 ft 9 kts 278°
2026-04-26 10:26 -30.78866 121.45585 1214 ft 12 kts 290°
2026-04-26 10:26 -30.78853 121.45481 1214 ft 12 kts 295°
2026-04-26 10:27 -30.78826 121.45510 1214 ft 7 kts 146°
2026-04-26 10:27 -30.78847 121.45533 1214 ft 1 kts 100°
2026-04-26 10:27 -30.78858 121.45563 1214 ft 12 kts 111°
2026-04-26 10:27 -30.78988 121.45968 1213 ft 92 kts 110°
2026-04-26 10:28 -30.79287 121.46900 1231 ft 148 kts 111°
2026-04-26 10:28 -30.79679 121.48030 1740 ft 155 kts 110°
2026-04-26 10:28 -30.80080 121.49242 2386 ft 162 kts 109°
2026-04-26 10:28 -30.80666 121.50356 3081 ft 172 kts 137°
2026-04-26 10:29 -30.81763 121.50916 3637 ft 186 kts 173°
2026-04-26 10:29 -30.83082 121.50533 4067 ft 213 kts 211°
2026-04-26 10:29 -30.84062 121.49187 4688 ft 226 kts 250°
2026-04-26 10:29 -30.84240 121.47374 5568 ft 228 kts 278°
2026-04-26 10:30 -30.83749 121.45632 6478 ft 227 kts 298°
2026-04-26 10:30 -30.83013 121.44004 7405 ft 228 kts 300°
2026-04-26 10:30 -30.82234 121.42340 8075 ft 245 kts 295°
2026-04-26 10:30 -30.81950 121.40308 8524 ft 271 kts 262°
2026-04-26 10:31 -30.82656 121.38211 9136 ft 288 kts 238°
2026-04-26 10:31 -30.83738 121.36223 10000 ft 293 kts 238°
2026-04-26 10:31 -30.84839 121.34168 10629 ft 310 kts 239°
2026-04-26 10:31 -30.86013 121.31952 10940 ft 333 kts 239°
2026-04-26 10:32 -30.87250 121.29601 11496 ft 345 kts 239°
2026-04-26 10:32 -30.88514 121.27192 12256 ft 351 kts 239°
2026-04-26 10:32 -30.89787 121.24758 13056 ft 354 kts 239°
2026-04-26 10:32 -30.91073 121.22294 13812 ft 358 kts 239°
2026-04-26 10:33 -30.92379 121.19803 14547 ft 363 kts 239°
2026-04-26 10:33 -30.93701 121.17282 15271 ft 367 kts 240°
2026-04-26 10:33 -30.95034 121.14735 15972 ft 371 kts 240°
2026-04-26 10:33 -30.96385 121.12157 16641 ft 375 kts 240°
2026-04-26 10:34 -30.97751 121.09550 17315 ft 379 kts 240°
2026-04-26 10:34 -30.99132 121.06918 17983 ft 383 kts 240°
2026-04-26 10:34 -31.00507 121.04292 18647 ft 387 kts 240°
2026-04-26 10:34 -31.01915 121.01596 19334 ft 391 kts 240°
2026-04-26 10:35 -31.03332 120.98875 20054 ft 394 kts 240°
2026-04-26 10:35 -31.04753 120.96137 20760 ft 396 kts 240°
2026-04-26 10:35 -31.06186 120.93374 21441 ft 399 kts 240°
2026-04-26 10:35 -31.07628 120.90602 22088 ft 401 kts 240°
2026-04-26 10:36 -31.09081 120.87812 22697 ft 404 kts 240°
2026-04-26 10:36 -31.10541 120.85006 23275 ft 406 kts 240°
2026-04-26 10:36 -31.12011 120.82182 23837 ft 408 kts 240°
2026-04-26 10:36 -31.13490 120.79344 24366 ft 410 kts 240°
2026-04-26 10:37 -31.14973 120.76491 24891 ft 412 kts 240°
2026-04-26 10:37 -31.16462 120.73622 25409 ft 414 kts 240°
2026-04-26 10:37 -31.17953 120.70740 25916 ft 415 kts 240°
2026-04-26 10:37 -31.19445 120.67847 26392 ft 417 kts 240°
2026-04-26 10:38 -31.20943 120.64941 26877 ft 418 kts 240°
2026-04-26 10:38 -31.22445 120.62025 27341 ft 420 kts 240°
2026-04-26 10:38 -31.23956 120.59100 27813 ft 421 kts 240°
2026-04-26 10:38 -31.25473 120.56160 28282 ft 423 kts 240°
2026-04-26 10:39 -31.26996 120.53208 28748 ft 424 kts 240°
2026-04-26 10:39 -31.28519 120.50252 29196 ft 426 kts 240°
2026-04-26 10:39 -31.30047 120.47283 29630 ft 426 kts 240°
2026-04-26 10:39 -31.31457 120.44228 30030 ft 428 kts 246°
2026-04-26 10:40 -31.32672 120.41046 30430 ft 429 kts 246°
2026-04-26 10:40 -31.33886 120.37854 30824 ft 430 kts 246°
2026-04-26 10:40 -31.35102 120.34652 31221 ft 430 kts 246°
2026-04-26 10:40 -31.36312 120.31458 31741 ft 428 kts 247°
2026-04-26 10:41 -31.37513 120.28282 32109 ft 426 kts 247°
2026-04-26 10:41 -31.38703 120.25127 32183 ft 420 kts 247°
2026-04-26 10:41 -31.41044 120.18940 32204 ft 413 kts 247°
2026-04-26 10:42 -31.42977 120.13839 32204 ft 412 kts 247°
2026-04-26 10:42 -31.45676 120.06672 32199 ft 411 kts 247°
2026-04-26 10:43 -31.47968 120.00587 32194 ft 411 kts 248°
2026-04-26 10:43 -31.50281 119.94453 32186 ft 412 kts 248°
2026-04-26 10:44 -31.52593 119.88312 32186 ft 412 kts 248°
2026-04-26 10:44 -31.54897 119.82164 32183 ft 412 kts 248°
2026-04-26 10:45 -31.57191 119.76010 32179 ft 412 kts 248°
2026-04-26 10:45 -31.59480 119.69849 32176 ft 412 kts 248°
2026-04-26 10:46 -31.61778 119.63686 32176 ft 412 kts 248°
2026-04-26 10:46 -31.64079 119.57514 32178 ft 413 kts 248°
2026-04-26 10:47 -31.66377 119.51337 32175 ft 413 kts 248°
2026-04-26 10:47 -31.68662 119.45163 32171 ft 412 kts 248°
2026-04-26 10:48 -31.70942 119.38995 32164 ft 412 kts 248°
2026-04-26 10:48 -31.73208 119.32852 32158 ft 413 kts 248°
2026-04-26 10:49 -31.75487 119.26658 32156 ft 413 kts 248°
2026-04-26 10:49 -31.77771 119.20454 32155 ft 414 kts 248°
2026-04-26 10:50 -31.79686 119.15242 32155 ft 415 kts 248°
2026-04-26 10:50 -31.81952 119.09055 32159 ft 415 kts 249°
2026-04-26 10:51 -31.85765 118.98651 32152 ft 416 kts 249°
2026-04-26 10:52 -31.87657 118.93454 32159 ft 416 kts 249°
2026-04-26 10:52 -31.89935 118.87189 32153 ft 417 kts 249°
2026-04-26 10:53 -31.92212 118.80920 32152 ft 417 kts 249°
2026-04-26 10:53 -31.94494 118.74645 32154 ft 417 kts 249°
2026-04-26 10:54 -31.97900 118.65238 32146 ft 416 kts 249°
2026-04-26 10:54 -32.00177 118.58958 32141 ft 417 kts 249°
2026-04-26 10:55 -32.02446 118.52672 32146 ft 416 kts 249°
2026-04-26 10:55 -32.04703 118.46395 32150 ft 416 kts 249°
2026-04-26 10:56 -32.06957 118.40112 32140 ft 416 kts 249°
2026-04-26 10:56 -32.09310 118.33924 32142 ft 417 kts 247°
2026-04-26 10:57 -32.11815 118.27757 32138 ft 417 kts 247°
2026-04-26 10:57 -32.14322 118.21583 32137 ft 417 kts 247°
2026-04-26 10:58 -32.16796 118.15390 32134 ft 417 kts 248°
2026-04-26 10:58 -32.19249 118.09175 32134 ft 418 kts 248°
2026-04-26 10:59 -32.21700 118.02956 32132 ft 418 kts 248°
2026-04-26 10:59 -32.24163 117.96740 32135 ft 418 kts 248°
2026-04-26 11:00 -32.26613 117.90522 32134 ft 417 kts 248°
2026-04-26 11:00 -32.29049 117.84342 32133 ft 418 kts 248°
2026-04-26 11:01 -32.31497 117.78116 32142 ft 417 kts 248°
2026-04-26 11:01 -32.33938 117.71887 32141 ft 417 kts 248°
2026-04-26 11:02 -32.35398 117.65339 32141 ft 412 kts 268°
2026-04-26 11:02 -32.34728 117.58659 32140 ft 411 kts 285°
2026-04-26 11:03 -32.33155 117.52159 32138 ft 411 kts 285°
2026-04-26 11:03 -32.31596 117.45660 32132 ft 411 kts 285°
2026-04-26 11:04 -32.30041 117.39167 32129 ft 411 kts 285°
2026-04-26 11:04 -32.28461 117.32642 31998 ft 414 kts 285°
2026-04-26 11:05 -32.27667 117.29368 30772 ft 420 kts 285°
2026-04-26 11:05 -32.26849 117.25985 29203 ft 435 kts 285°
2026-04-26 11:05 -32.26028 117.22596 28537 ft 430 kts 285°
2026-04-26 11:05 -32.25218 117.19263 28136 ft 418 kts 285°
2026-04-26 11:06 -32.24421 117.15986 27470 ft 413 kts 285°
2026-04-26 11:06 -32.23630 117.12740 26839 ft 409 kts 285°
2026-04-26 11:06 -32.22844 117.09530 26201 ft 405 kts 285°
2026-04-26 11:06 -32.22064 117.06349 25573 ft 401 kts 285°
2026-04-26 11:07 -32.21290 117.03193 24950 ft 399 kts 285°
2026-04-26 11:07 -32.20522 117.00063 24338 ft 396 kts 286°
2026-04-26 11:07 -32.19758 116.96948 23742 ft 394 kts 286°
2026-04-26 11:07 -32.18996 116.93849 23148 ft 392 kts 286°
2026-04-26 11:08 -32.18240 116.90759 22557 ft 391 kts 285°
2026-04-26 11:08 -32.17742 116.87608 21942 ft 391 kts 279°
2026-04-26 11:08 -32.17339 116.84440 21356 ft 390 kts 279°
2026-04-26 11:08 -32.16936 116.81281 20774 ft 388 kts 279°
2026-04-26 11:09 -32.16533 116.78142 20190 ft 386 kts 279°
2026-04-26 11:09 -32.16130 116.75018 19617 ft 384 kts 279°
2026-04-26 11:09 -32.15724 116.71907 19016 ft 382 kts 279°
2026-04-26 11:09 -32.15319 116.68816 18411 ft 380 kts 279°
2026-04-26 11:10 -32.14923 116.65788 17804 ft 378 kts 279°
2026-04-26 11:10 -32.14629 116.62713 17171 ft 377 kts 272°
2026-04-26 11:10 -32.14802 116.59635 16535 ft 376 kts 264°
2026-04-26 11:10 -32.15141 116.56588 15895 ft 373 kts 264°
2026-04-26 11:11 -32.15474 116.53565 15253 ft 370 kts 264°
2026-04-26 11:11 -32.15799 116.50570 14614 ft 367 kts 264°
2026-04-26 11:11 -32.16120 116.47595 13974 ft 364 kts 264°
2026-04-26 11:11 -32.16437 116.44647 13337 ft 360 kts 264°
2026-04-26 11:12 -32.16752 116.41725 12701 ft 357 kts 264°
2026-04-26 11:12 -32.17064 116.38834 12074 ft 354 kts 264°
2026-04-26 11:12 -32.17373 116.35973 11456 ft 350 kts 264°
2026-04-26 11:12 -32.17680 116.33135 10833 ft 347 kts 264°
2026-04-26 11:13 -32.17980 116.30348 10568 ft 335 kts 264°
2026-04-26 11:13 -32.18266 116.27687 10439 ft 320 kts 264°
2026-04-26 11:13 -32.18538 116.25135 10311 ft 307 kts 264°
2026-04-26 11:14 -32.18620 116.24358 10271 ft 303 kts 264°
2026-04-26 11:14 -32.18876 116.21924 10098 ft 294 kts 264°
2026-04-26 11:14 -32.19122 116.19552 9925 ft 287 kts 264°
2026-04-26 11:14 -32.19361 116.17191 9508 ft 294 kts 267°
2026-04-26 11:15 -32.19286 116.14775 8966 ft 297 kts 277°
2026-04-26 11:15 -32.19041 116.12341 8410 ft 300 kts 278°
2026-04-26 11:15 -32.18778 116.09881 7855 ft 304 kts 278°
2026-04-26 11:15 -32.18512 116.07399 7302 ft 306 kts 278°
2026-04-26 11:16 -32.18247 116.04897 6749 ft 308 kts 278°
2026-04-26 11:16 -32.17994 116.02435 6355 ft 293 kts 278°
2026-04-26 11:16 -32.17761 116.00113 6105 ft 281 kts 278°
2026-04-26 11:16 -32.17539 115.97834 5861 ft 279 kts 278°
2026-04-26 11:17 -32.17319 115.95567 5603 ft 278 kts 278°
2026-04-26 11:17 -32.17099 115.93302 5351 ft 277 kts 278°
2026-04-26 11:17 -32.16877 115.91042 5114 ft 278 kts 278°
2026-04-26 11:17 -32.16650 115.88789 4997 ft 276 kts 278°
2026-04-26 11:18 -32.16335 115.86563 5003 ft 275 kts 290°
2026-04-26 11:18 -32.15416 115.84626 5006 ft 266 kts 314°
2026-04-26 11:18 -32.14010 115.83350 5007 ft 249 kts 336°
2026-04-26 11:18 -32.12385 115.82818 5007 ft 245 kts 357°
2026-04-26 11:19 -32.10684 115.82729 5008 ft 245 kts 359°
2026-04-26 11:19 -32.08980 115.82647 5008 ft 245 kts 359°
2026-04-26 11:19 -32.07277 115.82563 4991 ft 246 kts 359°
2026-04-26 11:19 -32.05574 115.82479 4862 ft 244 kts 359°
2026-04-26 11:20 -32.03879 115.82396 4738 ft 244 kts 359°
2026-04-26 11:20 -32.02733 115.82340 4653 ft 243 kts 359°
2026-04-26 11:20 -32.00493 115.82230 4493 ft 243 kts 359°
2026-04-26 11:20 -31.98804 115.82146 4355 ft 243 kts 359°
2026-04-26 11:21 -31.97119 115.82062 4235 ft 240 kts 359°
2026-04-26 11:21 -31.95476 115.81980 4108 ft 233 kts 359°
2026-04-26 11:21 -31.93861 115.81901 3981 ft 232 kts 359°
2026-04-26 11:21 -31.92248 115.81821 3857 ft 232 kts 359°
2026-04-26 11:22 -31.90640 115.81741 3731 ft 231 kts 359°
2026-04-26 11:22 -31.89032 115.81662 3606 ft 231 kts 359°
2026-04-26 11:22 -31.87428 115.81592 3477 ft 231 kts
2026-04-26 11:22 -31.85860 115.81910 3353 ft 228 kts 21°
2026-04-26 11:23 -31.84474 115.82788 3226 ft 227 kts 39°
2026-04-26 11:23 -31.83350 115.84081 3103 ft 226 kts 49°
2026-04-26 11:23 -31.82367 115.85519 2985 ft 226 kts 54°
2026-04-26 11:23 -31.81523 115.87046 2881 ft 226 kts 60°
2026-04-26 11:24 -31.80809 115.88685 2795 ft 225 kts 66°
2026-04-26 11:24 -31.80235 115.90395 2797 ft 222 kts 72°
2026-04-26 11:24 -31.79830 115.92073 2803 ft 206 kts 77°
2026-04-26 11:24 -31.79583 115.93688 2686 ft 196 kts 83°
2026-04-26 11:25 -31.79473 115.95252 2588 ft 188 kts 88°
2026-04-26 11:25 -31.79491 115.96774 2523 ft 185 kts 98°
2026-04-26 11:25 -31.80023 115.98125 2512 ft 186 kts 133°
2026-04-26 11:25 -31.81088 115.98982 2514 ft 187 kts 148°
2026-04-26 11:26 -31.82300 115.99553 2259 ft 190 kts 168°
2026-04-26 11:26 -31.83606 115.99535 1947 ft 188 kts 191°
2026-04-26 11:26 -31.84865 115.99171 1711 ft 182 kts 192°
2026-04-26 11:26 -31.86057 115.98824 1450 ft 171 kts 192°
2026-04-26 11:27 -31.87184 115.98497 1216 ft 162 kts 192°
2026-04-26 11:27 -31.88244 115.98188 997 ft 152 kts 193°
2026-04-26 11:27 -31.89219 115.97905 817 ft 137 kts 193°
2026-04-26 11:27 -31.90122 115.97643 643 ft 131 kts 193°
2026-04-26 11:28 -31.90992 115.97391 467 ft 128 kts 192°
2026-04-26 11:28 -31.91845 115.97143 310 ft 128 kts 193°
2026-04-26 11:28 -31.92706 115.96893 139 ft 127 kts 193°
2026-04-26 11:28 -31.93539 115.96652 63 ft 111 kts 193°
2026-04-26 11:29 -31.94134 115.96477 71 ft 63 kts 194°
2026-04-26 11:29 -31.94408 115.96395 68 ft 15 kts 205°
2026-04-26 11:29 -31.94426 115.96275 66 ft 18 kts 284°
2026-04-26 11:29 -31.94407 115.96199 61 ft 9 kts 288°
2026-04-26 11:30 -31.94352 115.96172 61 ft 11 kts 17°
2026-04-26 11:30 -31.94296 115.96192 64 ft 14 kts 13°
2026-04-26 11:30 -31.94152 115.96234 61 ft 19 kts 14°
2026-04-26 11:30 -31.94081 115.96254 69 ft 7 kts 14°
2026-04-26 11:31 -31.93998 115.96255 69 ft 16 kts 345°
2026-04-26 11:31 -31.93871 115.96218 69 ft 21 kts 347°
2026-04-26 11:31 -31.93733 115.96186 68 ft 19 kts 352°
2026-04-26 11:31 -31.93621 115.96185 68 ft 18 kts 16°
2026-04-26 11:32 -31.93507 115.96238 68 ft 14 kts 30°
2026-04-26 11:32 -31.93410 115.96294 68 ft 15 kts 21°
2026-04-26 11:32 -31.93309 115.96325 68 ft 11 kts 10°
2026-04-26 11:32 -31.93234 115.96314 68 ft 12 kts 319°
2026-04-26 11:33 -31.93186 115.96222 68 ft 13 kts 315°
2026-04-26 11:33 -31.93146 115.96138 68 ft 10 kts 277°
2026-04-26 11:33 -31.93185 115.96104 68 ft 3 kts 201°
2026-04-26 11:33 -31.93196 115.96099 68 ft 0 kts 200°